User: anonymous   Login
Location: Gouvernes
(48.8601°N, 2.6907°E)
Time: 03:03:12
(UTC+00:00)
Language:

Okean 1-7 Rocket - Orbit

View from above orbital plane
View from above orbital plane
View from above satellite
View from above satellite

Ground track
Ground track

The orbit data is extracted from the following two-line orbital elements,

1 23318U 94066B   22026.56519060  .00000140  00000-0  15654-4 0  9996
2 23318  82.5395  46.4144 0025012 120.9872 239.3802 14.78949146471577
Epoch (UTC): 26 January 2022 13:33:52
Eccentricity: 0.0025012
inclination: 82.5395°
perigee height: 615 km
apogee height: 650 km
right ascension of ascending node: 46.4144°
argument of perigee: 120.9872°
revolutions per day: 14.78949146
mean anomaly at epoch: 239.3802°
orbit number at epoch: 47157

The dashed part of the orbit path shows where the satellite is in the earth's shadow,  

DLR